Location: Chevoux
(46.3801°N, 4.9476°E)
Time: 07:58:20
(UTC+00:00)

X-37B - Pass Details

Date: 27 April 2021
Orbit: 386 x 389 km, 45.0° (Epoch: 08 May)

Event Time Altitude Azimuth Distance (km) Brightness Sun altitude
Exits shadow 02:35:36 39° 158° (SSE) 597 1.3 -17.7°
Drops below altitude 10° 02:38:01 10° 121° (ESE) 1,411 3.6 -17.4°
Sets 02:40:08 0° 115° (ESE) 2,263 4.8 -17.2°
